Home   Weather   Perpignan   Past weeks

Flag for France Past Weather in Perpignan, Languedoc-Roussillon, France — Yesterday and Last 2 Weeks

Now
68 °F

Clear.


Feels Like: 68 °F
Forecast: 66 / 83 °F
Wind: 13 mph from West

Location: Perpignan Airport

Current Time: Aug 20, 2017 at 6:10:46 am

Latest Report: Aug 20, 2017 at 5:30 am


Visibility: 10 mi

Pressure: 30.18 "Hg

Humidity: 46%

Dew Point: 46 °F

Location of PerpignanLocation

Past Weather in Perpignan — Graph

°F

Perpignan Temperature Yesterday

Maximum temperature yesterday: 84 °F (at 5:00 pm)
Minimum temperature yesterday: 72 °F (at 3:00 am)
Average temperature yesterday: 76 °F

High & Low Weather Summary for the Past Weeks

 TemperatureHumidityPressure
High97 °F (Aug 5, 1:30 pm)94% (Aug 14, 7:00 am)30.21 "Hg (Aug 14, 7:00 am)
Low59 °F (Aug 9, 9:30 pm)25% (Aug 12, 4:30 pm)29.83 "Hg (Aug 8, 1:00 am)
Average75 °F56%30.06 "Hg
* Reported Aug 5 4:00 am — Aug 20 4:30 am, Perpignan. Weather by CustomWeather, © 2017

Note: Actual official high and low records may vary slightly from our data, if they occured in-between our weather recording intervals... More about our weather records

Advertising

Perpignan Weather History for the Previous 24 Hours

Scroll right to see more
 ConditionsComfort  
Time TempWeatherWind HumidityBarometerVisibility
4:30 am
Sun, Aug 20
68 °FClear.12 mph43%30.18 "Hg10 mi
4:00 am68 °FPassing clouds.9 mph43%30.18 "HgN/A
3:30 am70 °FClear.12 mph40%30.18 "Hg10 mi
3:00 am70 °FClear.9 mph40%30.15 "Hg10 mi
2:00 am72 °FClear.10 mph38%30.15 "Hg10 mi
1:30 am72 °FClear.14 mph38%30.18 "Hg10 mi
1:00 am72 °FClear.12 mph38%30.18 "Hg10 mi
12:30 am72 °FPassing clouds.10 mph38%30.18 "HgN/A
12:00 am73 °FPassing clouds.9 mph36%30.18 "HgN/A
11:30 pm
Sat, Aug 19
73 °FPassing clouds.8 mph36%30.18 "HgN/A
11:00 pm73 °FClear.14 mph41%30.18 "Hg10 mi
10:30 pm75 °FClear.10 mph47%30.15 "Hg10 mi
10:00 pm75 °FPassing clouds.13 mph44%30.15 "HgN/A
9:30 pm75 °FPassing clouds.10 mph47%30.15 "HgN/A
9:00 pm77 °FPassing clouds.14 mph39%30.12 "HgN/A
8:30 pm77 °FSunny.14 mph42%30.12 "Hg10 mi
8:00 pm79 °FPassing clouds.16 mph39%30.12 "HgN/A
7:30 pm79 °FPassing clouds.15 mph39%30.09 "HgN/A
7:00 pm81 °FPassing clouds.16 mph37%30.09 "HgN/A
6:30 pm82 °FSunny.15 mph35%30.09 "Hg10 mi
6:00 pm82 °FPassing clouds.15 mph37%30.09 "HgN/A
5:30 pm82 °FSunny.15 mph37%30.09 "Hg10 mi
5:00 pm84 °FPassing clouds.17 mph35%30.09 "HgN/A
4:30 pm82 °FSunny.20 mph37%30.09 "Hg10 mi
4:00 pm82 °FPassing clouds.18 mph37%30.09 "HgN/A
3:30 pm82 °FSunny.17 mph40%30.09 "Hg10 mi
3:00 pm82 °FSunny.17 mph40%30.09 "Hg10 mi
2:30 pm81 °FPassing clouds.15 mph45%30.12 "HgN/A
2:00 pm81 °FPassing clouds.16 mph45%30.09 "HgN/A
1:30 pm79 °FPassing clouds.16 mph45%30.12 "HgN/A
1:00 pm79 °FPassing clouds.15 mph45%30.12 "HgN/A
12:30 pm79 °FPassing clouds.16 mph45%30.12 "HgN/A
12:00 pm77 °FPassing clouds.15 mph51%30.12 "HgN/A
11:30 am77 °FPassing clouds.16 mph51%30.12 "HgN/A
11:00 am75 °FScattered clouds.15 mph54%30.12 "HgN/A
10:30 am75 °FPartly sunny.13 mph54%30.12 "HgN/A
10:00 am75 °FScattered clouds.13 mph54%30.12 "HgN/A
9:30 am73 °FScattered clouds.12 mph57%30.12 "HgN/A
9:00 am73 °FPassing clouds.9 mph57%30.12 "HgN/A
8:30 am72 °FPartly sunny.8 mph61%30.12 "HgN/A
8:00 am72 °FBroken clouds.8 mph61%30.12 "HgN/A
7:30 am72 °FMostly cloudy.7 mph65%30.12 "HgN/A
7:00 am72 °FMostly cloudy.6 mph65%30.12 "HgN/A
6:30 am72 °FOvercast.13 mph61%30.12 "HgN/A
6:00 am72 °FOvercast.9 mph65%30.09 "HgN/A
Weather by CustomWeather, © 2017

See weather overviewHow to use our weather pages